Location: Pinon Hills
(34.4429°N, 117.6403°W)
Time: 10:23:51
(UTC-07:00)

Uosat F - Visible Passes

Search period start: 24 April 2014 00:00
Search period end: 04 May 2014 00:00
Orbit: 751 x 763 km, 98.7° (Epoch: 23 April)

Date Brightness Start Highest point End Pass type
(mag) Time Alt. Az. Time Alt. Az. Time Alt. Az.
24 Apr 13.7 03:45:58 10° ENE 03:48:41 15° E 03:51:23 10° SE visible
24 Apr 11.3 05:22:52 10° N 05:27:42 51° WNW 05:32:31 10° SSW visible
25 Apr 11.5 04:43:45 10° NNE 04:48:43 62° ESE 04:53:39 10° S visible
26 Apr 13.1 04:05:30 10° NE 04:09:31 24° E 04:13:30 10° SSE visible
27 Apr 11.0 05:04:23 10° N 05:09:23 81° WNW 05:14:23 10° SSW visible
28 Apr 12.3 04:25:37 10° NNE 04:30:18 39° E 04:34:57 10° SSE visible
29 Apr 13.7 03:48:08 10° ENE 03:51:00 15° E 03:53:52 10° SE visible
29 Apr 11.4 05:25:12 10° N 05:30:00 49° WNW 05:34:48 10° SSW visible
30 Apr 11.5 04:46:03 10° NNE 04:51:01 65° ESE 04:55:58 10° S visible
01 May 13.1 04:07:44 10° NE 04:11:50 25° E 04:15:54 10° SSE visible
02 May 11.0 05:06:40 10° N 05:11:41 78° WNW 05:16:40 10° SSW visible
03 May 12.3 04:27:53 10° NNE 04:32:36 41° E 04:37:17 10° S visible
